When you browse on this site, cookies collect data to enhance your experience and personalize the content and advertising you see.
Visit our Privacy Policy to learn more. By continuing to use the site, you agree to this use of cookies and data.
  • In Latvia
  • List of Countries
  • For 7 days
  • Water Temperature
  • Satellite Maps
  • Weather Map
  • Weather Widgets
  • user-avatar
    Login

    Hourly Weather Liege

    Today, 21 April, Sunday

    Time Temperature Precipitation Wind Pressure Humidity
    00:00 +14°C° 0 mm 2 mps 759 mmHg 68%
    01:00 +13°C° 0 mm 2 mps 758 mmHg 70%
    02:00 +13°C° 0 mm 2 mps 758 mmHg 72%
    03:00 +12°C° 0 mm 2 mps 758 mmHg 73%
    04:00 +13°C° 0 mm 1 mps 757 mmHg 74%
    05:00 +13°C° 0 mm 1 mps 757 mmHg 74%
    06:00 +14°C° 0 mm 1 mps 757 mmHg 67%
    07:00 +16°C° 0 mm 1 mps 757 mmHg 63%
    08:00 +18°C° 0 mm 2 mps 756 mmHg 58%
    09:00 +20°C° 0 mm 2 mps 756 mmHg 53%
    10:00 +21°C° 0 mm 2 mps 756 mmHg 50%
    11:00 +22°C° 0 mm 3 mps 755 mmHg 46%
    12:00 +24°C° 0 mm 3 mps 755 mmHg 43%
    13:00 +24°C° 0 mm 3 mps 754 mmHg 43%
    14:00 +25°C° 0 mm 3 mps 754 mmHg 43%
    15:00 +25°C° 0 mm 3 mps 753 mmHg 44%
    16:00 +23°C° 0 mm 2 mps 753 mmHg 49%
    17:00 +21°C° 0 mm 2 mps 752 mmHg 54%
    18:00 +19°C° 0 mm 2 mps 752 mmHg 60%
    19:00 +18°C° 0 mm 2 mps 752 mmHg 61%
    20:00 +16°C° 0 mm 2 mps 752 mmHg 63%
    21:00 +15°C° 0 mm 2 mps 752 mmHg 65%
    22:00 +14°C° 0 mm 2 mps 752 mmHg 64%
    23:00 +14°C° 0 mm 2 mps 752 mmHg 63%

    Tomorrow, 22 April, Monday

    Time Temperature Precipitation Wind Pressure Humidity
    00:00 +13°C° 0 mm 2 mps 751 mmHg 63%
    01:00 +13°C° 0 mm 2 mps 751 mmHg 62%
    02:00 +13°C° 0 mm 2 mps 750 mmHg 62%
    03:00 +12°C° 0 mm 2 mps 750 mmHg 61%
    04:00 +13°C° 0 mm 2 mps 750 mmHg 63%
    05:00 +13°C° 0 mm 2 mps 750 mmHg 65%
    06:00 +13°C° 0 mm 2 mps 749 mmHg 67%
    07:00 +16°C° 0 mm 3 mps 749 mmHg 61%
    08:00 +18°C° 0 mm 3 mps 749 mmHg 55%
    09:00 +21°C° 0 mm 4 mps 748 mmHg 49%
    10:00 +21°C° 0 mm 4 mps 748 mmHg 47%
    11:00 +22°C° 0 mm 4 mps 747 mmHg 45%
    12:00 +23°C° 0 mm 5 mps 747 mmHg 44%
    13:00 +23°C° 0 mm 4 mps 746 mmHg 44%
    14:00 +23°C° 0 mm 4 mps 746 mmHg 44%
    15:00 +23°C° 0 mm 4 mps 745 mmHg 44%
    16:00 +21°C° 0 mm 4 mps 745 mmHg 50%
    17:00 +20°C° 0 mm 4 mps 744 mmHg 56%
    18:00 +18°C° 0 mm 3 mps 744 mmHg 62%
    19:00 +17°C° 0 mm 4 mps 744 mmHg 62%
    20:00 +15°C° 0 mm 4 mps 744 mmHg 62%
    21:00 +14°C° 0 mm 5 mps 744 mmHg 61%
    22:00 +14°C° 0 mm 5 mps 744 mmHg 62%
    23:00 +13°C° 0 mm 4 mps 744 mmHg 62%

    Day after tomorrow, 23 April, Tuesday

    Time Temperature Precipitation Wind Pressure Humidity
    00:00 +12°C° 0 mm 4 mps 743 mmHg 62%
    01:00 +11°C° 0 mm 4 mps 743 mmHg 63%
    02:00 +11°C° 0 mm 4 mps 743 mmHg 64%
    03:00 +10°C° 0 mm 3 mps 742 mmHg 65%
    04:00 +10°C° 0 mm 3 mps 742 mmHg 67%
    05:00 +10°C° 0 mm 4 mps 742 mmHg 69%
    06:00 +10°C° 0 mm 4 mps 742 mmHg 71%
    07:00 +12°C° 0 mm 4 mps 742 mmHg 68%
    08:00 +14°C° 0 mm 4 mps 742 mmHg 65%
    09:00 +17°C° 0 mm 4 mps 741 mmHg 62%
    10:00 +18°C° 0 mm 4 mps 741 mmHg 60%
    11:00 +19°C° 0 mm 4 mps 741 mmHg 59%
    12:00 +21°C° 0 mm 4 mps 741 mmHg 57%
    13:00 +21°C° 0 mm 4 mps 740 mmHg 56%
    14:00 +21°C° 0 mm 4 mps 740 mmHg 56%
    15:00 +22°C° 0 mm 3 mps 740 mmHg 56%
    16:00 +21°C° 0 mm 3 mps 740 mmHg 62%
    17:00 +19°C° 0 mm 3 mps 740 mmHg 67%
    18:00 +18°C° 0 mm 3 mps 740 mmHg 73%
    19:00 +17°C° 0 mm 3 mps 740 mmHg 76%
    20:00 +16°C° 0 mm 3 mps 740 mmHg 79%
    21:00 +13°C° 0 mm 3 mps 740 mmHg 83%
    22:00 +13°C° 0 mm 3 mps 740 mmHg 84%
    23:00 +13°C° 0 mm 2 mps 740 mmHg 86%

    24 April, Wednesday

    Time Temperature Precipitation Wind Pressure Humidity
    00:00 +13°C° 0 mm 2 mps 741 mmHg 88%
    01:00 +13°C° 0.2 mm 2 mps 741 mmHg 90%
    02:00 +13°C° 0.2 mm 2 mps 741 mmHg 92%
    03:00 +12°C° 0.2 mm 3 mps 741 mmHg 93%
    04:00 +13°C° 0.2 mm 3 mps 741 mmHg 93%
    05:00 +13°C° 0.2 mm 3 mps 741 mmHg 92%
    06:00 +14°C° 0.2 mm 3 mps 741 mmHg 91%
    07:00 +17°C° 0.2 mm 4 mps 742 mmHg 86%
    08:00 +17°C° 0.2 mm 5 mps 742 mmHg 80%
    09:00 +19°C° 0.2 mm 6 mps 742 mmHg 75%
    10:00 +20°C° 0.4 mm 6 mps 743 mmHg 69%
    11:00 +21°C° 0.4 mm 6 mps 743 mmHg 64%
    12:00 +22°C° 0.4 mm 6 mps 743 mmHg 58%
    13:00 +22°C° 0 mm 6 mps 743 mmHg 57%
    14:00 +23°C° 0 mm 6 mps 743 mmHg 56%
    15:00 +23°C° 0 mm 6 mps 743 mmHg 55%
    16:00 +22°C° 0 mm 5 mps 743 mmHg 60%
    17:00 +21°C° 0 mm 5 mps 743 mmHg 64%
    18:00 +20°C° 0 mm 4 mps 743 mmHg 68%
    19:00 +18°C° 0.3 mm 4 mps 743 mmHg 74%
    20:00 +17°C° 0.3 mm 4 mps 743 mmHg 79%
    21:00 +15°C° 0.3 mm 4 mps 744 mmHg 85%
    22:00 +14°C° 0.7 mm 4 mps 744 mmHg 86%
    23:00 +14°C° 0.7 mm 4 mps 745 mmHg 88%

    25 April, Thursday

    Time Temperature Precipitation Wind Pressure Humidity
    00:00 +13°C° 0.7 mm 4 mps 745 mmHg 89%
    01:00 +12°C° 0.1 mm 3 mps 745 mmHg 90%
    02:00 +11°C° 0.1 mm 3 mps 746 mmHg 91%
    03:00 +12°C° 0.1 mm 2 mps 746 mmHg 92%
    04:00 +12°C° 0 mm 2 mps 746 mmHg 90%
    05:00 +11°C° 0 mm 3 mps 746 mmHg 88%
    06:00 +11°C° 0 mm 3 mps 746 mmHg 86%
    07:00 +13°C° 0 mm 4 mps 746 mmHg 78%
    08:00 +14°C° 0 mm 5 mps 746 mmHg 69%
    09:00 +16°C° 0 mm 6 mps 746 mmHg 61%
    10:00 +17°C° 0 mm 7 mps 745 mmHg 58%
    11:00 +18°C° 0 mm 8 mps 745 mmHg 56%
    12:00 +20°C° 0 mm 8 mps 745 mmHg 53%
    13:00 +18°C° 0.2 mm 8 mps 744 mmHg 57%
    14:00 +17°C° 0.2 mm 9 mps 744 mmHg 60%
    15:00 +16°C° 0.2 mm 9 mps 744 mmHg 64%
    16:00 +15°C° 0.4 mm 8 mps 744 mmHg 72%
    17:00 +13°C° 0.4 mm 6 mps 744 mmHg 81%
    18:00 +12°C° 0.4 mm 5 mps 745 mmHg 89%
    19:00 +10°C° 0 mm 5 mps 745 mmHg 89%
    20:00 +10°C° 0 mm 4 mps 746 mmHg 89%
    21:00 +10°C° 0 mm 4 mps 746 mmHg 88%
    22:00 +8°C° 0 mm 4 mps 747 mmHg 88%
    23:00 +8°C° 0 mm 4 mps 747 mmHg 88%

    26 April, Friday

    Time Temperature Precipitation Wind Pressure Humidity
    00:00 +8°C° 0 mm 4 mps 747 mmHg 87%
    01:00 +8°C° 0 mm 4 mps 747 mmHg 88%
    02:00 +7°C° 0 mm 4 mps 748 mmHg 88%
    03:00 +7°C° 0 mm 4 mps 748 mmHg 88%
    04:00 +7°C° 0 mm 5 mps 748 mmHg 87%
    05:00 +7°C° 0 mm 5 mps 748 mmHg 85%
    06:00 +7°C° 0 mm 5 mps 749 mmHg 84%
    07:00 +8°C° 0 mm 6 mps 749 mmHg 80%
    08:00 +9°C° 0 mm 6 mps 749 mmHg 75%
    09:00 +10°C° 0 mm 7 mps 750 mmHg 71%
    10:00 +11°C° 0 mm 6 mps 750 mmHg 66%
    11:00 +13°C° 0 mm 6 mps 750 mmHg 61%
    12:00 +14°C° 0 mm 6 mps 750 mmHg 56%
    13:00 +14°C° 0.1 mm 6 mps 750 mmHg 56%
    14:00 +14°C° 0.1 mm 6 mps 750 mmHg 56%
    15:00 +14°C° 0.1 mm 6 mps 751 mmHg 56%
    16:00 +13°C° 0.1 mm 5 mps 751 mmHg 63%
    17:00 +12°C° 0.1 mm 4 mps 752 mmHg 69%
    18:00 +11°C° 0.1 mm 4 mps 752 mmHg 75%
    19:00 +10°C° 0 mm 3 mps 753 mmHg 79%
    20:00 +9°C° 0 mm 3 mps 753 mmHg 83%
    21:00 +8°C° 0 mm 3 mps 754 mmHg 87%
    22:00 +8°C° 0 mm 3 mps 754 mmHg 89%
    23:00 +7°C° 0 mm 3 mps 755 mmHg 90%
    Show more